Location: Leuk
(46.3174°N, 7.6341°E)
Time: 20:54:21
(UTC+00:00)

ARIANE 5 R/B - Pass Details

Date: 09 March 2021
Orbit: 749 x 794 km, 98.7° (Epoch: 20 April)

Event Time Altitude Azimuth Distance (km) Brightness Sun altitude
Rises 03:17:34 0° 8° (N) 3,225 6.2 -27.2°
Reaches altitude 10° 03:19:56 10° 3° (N) 2,301 5.3 -26.8°
Enters shadow 03:23:21 36° 333° (NNW) 1,196 3.4 -26.3°
